Regional Weather Roundup
Issued by NWS Grand Forks, ND

Home | Current Version | Previous Version | Text Only | Print | Product List | Glossary Off
Versions: 1 2 3 4 5 6 7 8 9 10 11 12 13 14 15 16 17 18 19 20 21 22 23 24 25 26 27 28 29 30 31 32 33 34 35 36 37 38 39 40 41 42 43 44 45 46 47 48 49 50

000
ASUS43 KFGF 252110
RWRFGF
PRAIRIE TO PINES  WEATHER ROUNDUP
NATIONAL WEATHER SERVICE EASTERN NORTH DAKOTA/GRAND FORKS ND
400 PM CDT TUE APR 25 2017

 **SATELLITE DATA USED TO AUGMENT SKY COVER AT AUTOMATED STATIONS**
 *****  WEATHER ACROSS EASTERN NORTH DAKOTA  *****

CITY           SKY/WX    TMP DP  RH WIND       PRES   REMARKS
GRAND FORKS    CLOUDY    37  30  75 N25G33    29.83F
GRAND FRKS AFB CLOUDY    34  27  75 NE25G31   29.84F WCI  21
DEVILS LAKE    CLOUDY    32  26  78 NE20      29.88F WCI  20
FARGO          CLOUDY    38  31  76 N23G35    29.75S
WAHPETON ARPT  CLOUDY    37  32  81 N21G29    29.70R
$$

 ***** WEATHER ACROSS CENTRAL AND WESTERN NORTH DAKOTA  *****

CITY           SKY/WX    TMP DP  RH WIND       PRES   REMARKS
BISMARCK       CLOUDY    34  25  69 N16       29.89R WCI  24
MINOT          CLOUDY    41  26  55 N18       29.91F
JAMESTOWN      CLOUDY    32  27  81 N22G30    29.81R WCI  19
MINOT AFB      PTSUNNY   41  25  52 NE22G29   29.91F
GARRISON         N/A     36  24  62 NE14G21   29.90S
WILLISTON      PTSUNNY   41  24  51 N12G17    29.97S
DICKINSON      CLOUDY    29  23  78 NE14      29.88R WCI  18
HETTINGER      CLOUDY    28  25  88 N17       29.88R WCI  16
$$

 *****  OTHER AIRPORT OBSERVATIONS IN OUR AREA  *****

CITY           SKY/WX    TMP DP  RH WIND       PRES   REMARKS
WALHALLA       NOT AVBL
GRAFTON AIRPOR CLOUDY    34  27  75 N20G28    29.90F WCI  22
VALLEY CITY AR FLURRIES  32  30  93 N24G31    29.80S WCI  19
CANDO          NOT AVBL
CAVALIER APRT  CLOUDY    36  27  69 NE20G28   29.91R
GWINNER        CLOUDY    36  30  80 MISG      29.75R
SHEYENNE NWR     N/A     36  29  75 N17       29.95S
ROLLA          MOCLDY    39  27  60 NE29      29.90R
 ***** THE ABOVE OBSERVATIONS ARE NON NWS ARE NOT QUALITY
       CONTROLLED AND MAY MIS-REPORT RAIN FOR SNOW...
$$

  *****  WEATHER ACROSS NORTHERN MINNESOTA  *****

CITY           SKY/WX    TMP DP  RH WIND       PRES   REMARKS
FLAG ISLAND    CLOUDY    30  25  80 NE20G28   29.89S WCI  18
WARROAD        CLOUDY    32  27  80 NE20G28   29.88S WCI  20
ROSEAU         CLOUDY    34  27  75 NE22      29.87S WCI  22
HALLOCK        CLOUDY    36  27  69 NE16      29.89S
THF RVR FALLS  CLOUDY    34  28  79 N23G30    29.79F WCI  22
BAUDETTE       CLOUDY    33  26  75 NE18G25   29.83S WCI  22
WASKISH        CLOUDY    36  30  80 NE17G25   29.78R
CROOKSTON      CLOUDY    37  30  75 NE21G26   29.81S
STEPHEN NDAWN    N/A     36  28  75 NE18        N/A
GREENBUSH NDAW   N/A     32  28  86 NE17        N/A  WCI  21
$$
  *****  WEATHER ACROSS CENTRAL AND WEST MINNESOTA  *****

CITY           SKY/WX    TMP DP  RH WIND       PRES   REMARKS
FOSSTON        CLOUDY    36  36 100 N22       29.75S
BEMIDJI        CLOUDY    35  32  88 N17G23    29.72F WCI  25
PARK RAPIDS    CLOUDY    40  32  73 NE17G26   29.67R
ELBOW LAKE     CLOUDY    43  38  81 NE12G20   29.65R
WADENA         CLOUDY    41  36  81 N17G23    29.65R
DETROIT LAKES  CLOUDY    39  34  81 NE16G22   29.70R
MOORHEAD       CLOUDY    37  30  75 N25       29.75R
FERGUS FALLS   CLOUDY    39  37  93 N13G20    29.68R
MORRIS MN      CLOUDY    45  39  81 N16       29.62R
STAPLES        CLOUDY    43  36  75 N15       29.64R
$$
  *****  WEATHER ELSEWHERE ACROSS MINNESOTA  *****

CITY           SKY/WX    TMP DP  RH WIND       PRES   REMARKS
DULUTH         FAIR      51  39  63 SE15      29.61R
INTRNTL FALLS  CLOUDY    32  26  78 NE18G26   29.81R WCI  20
ELY            CLOUDY    41  37  87 N7G17     29.70R
CLOQUET        CLOUDY    52  36  54 E12G18    29.60S
WHEATON        CLOUDY    39  34  81 NW22G29   29.71R
BRAINERD       PTSUNNY   50  39  66 N15G23    29.61R
HIBBING        CLOUDY    41  37  86 N13G22    29.67R
ALEXANDRIA     PTSUNNY   47  38  71 N16       29.61F
SAINT CLOUD    PTSUNNY   62  46  55 N6        29.54S
MINNEAPOLIS    LGT RAIN  53  47  79 S3        29.56F
$$

  *****  WEATHER ACROSS SOUTH DAKOTA  *****

CITY           SKY/WX    TMP DP  RH WIND       PRES   REMARKS
SIOUX FALLS    LGT RAIN  42  42 100 N13       29.61S
BROOKINGS      LGT RAIN  37  34  89 N14G23    29.64R
WATERTOWN      CLOUDY    35  31  85 N20       29.65R WCI  24
HURON          CLOUDY    37  32  82 N21G28    29.72R
SISSETON         N/A     37  33  85 N26G32    29.70R
ABERDEEN       CLOUDY    36  27  69 N22G31    29.75F
MITCHELL       CLOUDY    40  33  76 N25       29.68F
PIERRE         CLOUDY    35  28  75 N21G28    29.77S WCI  24
MOBRIDGE       CLOUDY    35  25  66 N20G26    29.81R WCI  24
RAPID CITY     LGT SNOW  29  26  89 N18       29.81R VSB 3/4 WCI  16
$$

  *****  SOME WEATHER IN NEARBY STATES *****

CITY           SKY/WX    TMP DP  RH WIND       PRES   REMARKS
GLASGOW MT     CLOUDY    40  24  53 E12       29.95S
GREAT FALLS MT TSTM      41  39  93 N17       29.80R FOG
CHEYENNE WY    FAIR      47  30  51 NW24G31   29.63R
SCOTTSBLUFF NE CLOUDY    42  35  76 NE17      29.67R
OMAHA NE       CLOUDY    51  43  74 N16G25    29.51R
DES MOINES IA  CLOUDY    72  48  42 SE12      29.42S
DAVENPORT IA   FAIR      80  39  23 SE22G28   29.47F
CHICAGO IL     PTSUNNY   78  49  35 S13       29.56F
EAU CLAIRE WI  LGT RAIN  66  49  54 SW12G22   29.55R
LA CROSSE WI   CLOUDY    61  55  81 N6        29.54S
$$

  *****  SOME NATIONAL WEATHER *****

CITY           SKY/WX    TMP DP  RH WIND       PRES   REMARKS
LA GUARDIA NY  LGT RAIN  54  51  90 NE23G36   29.95F FOG
RALEIGH NC     PTSUNNY   69  59  70 VRB6      29.64S
ATLANTA GA     FAIR      77  57  50 NW13      29.74F
NEW ORLEANS LA FAIR      77  59  53 S14       29.76F
OKLAHOMA CITY  PTSUNNY   80  61  52 S20G26    29.38R
ALBUQUERQUE NM PTSUNNY   55  46  71 N8        29.69F
SALT LAKE CITY PTSUNNY   49  38  65 W9        29.87S
LOS ANGELES CA PTSUNNY   68  50  52 W23       29.89F
BOISE ID       FAIR      56  33  42 NW9G17    29.92F
SEATTLE WA     CLOUDY    54  41  61 SW8       29.92F
$$

*** WEATHER ACROSS MANITOBA...SASKATCHEWAN AND ONTARIO ***
                ***ONTARIO***

CITY           SKY/WX    TMP DP  RH WIND       PRES   REMARKS
GERALDTON      FLURRIES  23  19  86 NE13G20   29.91R WCI  11
THUNDER BAY    PTSUNNY   37  32  81 N10G17    29.76S
SIOUX LOOKOUT  CLOUDY    27  19  74 NE7G17    29.94R WCI  19
TORONTO        CLOUDY    48  46  93 E14G21    29.92F
BIG TROUT LK   SUNNY     27   5  39 NE10G29   30.21S WCI  17
PICKLE LAKE    FLURRIES  25  16  68 NE15G24   30.02F WCI  12
DRYDEN         CLOUDY    27  23  86 NE18G28   29.90R WCI  13
KENORA         CLOUDY    30  23  74 NE14G28   29.90S WCI  20
$$
                *** MANITOBA***

CITY           SKY/WX    TMP DP  RH WIND       PRES   REMARKS
BRANDON        PTSUNNY   39  21  48 NE24G31   29.98S
DAUPHIN        SUNNY     39  16  38 N15G24    30.09F
ISLAND LAKE    SUNNY     32   5  32 NE6       30.21S
PILOT MOUND      N/A     39  27  60 N20G29      N/A
THE PAS        MOSUNNY   32   1  27 NE9G17    30.21F WCI  24
THOMPSON       SUNNY     25  -6  26 E5        30.29F WCI  19
WINNIPEG       PTSUNNY   43  27  52 NE24G31   29.93S
LYNN LAKE      SUNNY     30   7  37 S7        30.23F WCI  23
CHURCHILL      MOSUNNY   10   1  67 S9        30.42F WCI  -2
GILLAM         SUNNY     18  -2  41 NE7       30.37F WCI   8
$$
                ***SASKATCHEWAN***

CITY           SKY/WX    TMP DP  RH WIND       PRES   REMARKS
ESTEVAN        PTSUNNY   39  25  56 E12G17    29.99F
KINDERSLEY     CLOUDY    34  23  64 SE16      29.97S WCI  23
LLOYDMINSTER   LGT SNOW  34  30  86 SE13      30.01F WCI  25
PRINCE ALBERT  CLOUDY    37  12  35 SE10G17   30.11F
REGINA         MOSUNNY   36  21  55 NE10      30.03F
YORKTON        MOSUNNY   37  19  48 NE14      30.06S
N. BATTLEFORD  CLOUDY    34  23  64 SE15      30.08S WCI  24
LA RONGE       PTSUNNY   37   5  25 E8        30.16F
SASKATOON      CLOUDY    37  19  48 E13G18    30.08S
SWIFT CURRENT  CLOUDY    34  25  69 E15       29.95S WCI  24
$$
NOTE: THESE ARE AUTOMATED STATIONS WITH LIMITED QUALITY CONTROL
      "FAIR" INDICATES FEW OR NO CLOUDS BELOW 12,000 FEET WITH NO
      SIGNIFICANT WEATHER AND/OR OBSTRUCTIONS TO VISIBILITY.
      SKY/WX - SKY CONDITION AND SIGNIFICANT WEATHER.
      TMP - AIR TEMPERATURE.    DP   - DEWPOINT TEMPERATURE.
      RH  - RELATIVE HUMIDITY.  PRES - PRESSURE.
      HX  - HEAT INDEX.         WCI  - WIND CHILL INDEX.
$



USA.gov is the U.S. government's official web portal to all federal, state and local government web resources and services.